Location: Krakow
(50.0830°N, 19.9170°E)
Time: 21:13:23
(UTC+01:00)

Altair - Pass Details

Date: 08 December 2023
Orbit: 1501 x 1682 km, 47.2° (Epoch: 03 March)

Event Time Altitude Azimuth Distance (km) Brightness Sun altitude
Rises 06:51:43 0° 219° (SW) 4,855 10.0 -5.4°
Reaches altitude 10° 06:55:04 10° 213° (SSW) 3,847 9.6 -4.9°
Maximum altitude 07:04:04 44° 146° (SSE) 2,087 8.9 -3.7°
Drops below altitude 10° 07:12:46 10° 79° (E) 3,725 10.3 -2.5°
Sets 07:15:57 0° 73° (ENE) 4,689 10.7 -2.1°
